<?xml version="1.0" encoding="UTF-8" standalone="no" ?>
<gpx xmlns="http://www.topografix.com/GPX/1/1" xmlns:xsi="http://www.w3.org/2001/XMLSchema-instance" xsi:schemaLocation="http://www.topografix.com/GPX/1/1 http://www.topografix.com/GPX/1/1/gpx.xsd" version="1.1" creator="VisuGPX - https://www.visugpx.com">
  <metadata>
    <name>Villebéon</name>
    <desc><![CDATA[Départ de l\'église de Villebéon, pour : les Abbés, Chêneviere, les Bedets, le château du Villeniard, le nid de Corbeaux, les Richoux, et nous traverserons la Champ de Bataille pour rejoindre Villebéon.]]></desc>
  </metadata>
  <trk>
    <name><![CDATA[villebeon oct 2011]]></name>
    <trkseg>
      <trkpt lat="48.20746" lon="2.94071">
        <ele>145</ele>
        <time>2007-02-15T09:01:18Z</time>
      </trkpt>
      <trkpt lat="48.2078" lon="2.9408">
        <ele>145</ele>
        <time>2007-02-15T09:01:18Z</time>
      </trkpt>
      <trkpt lat="48.208" lon="2.94097">
        <ele>145</ele>
        <time>2007-02-15T09:01:18Z</time>
      </trkpt>
      <trkpt lat="48.20836" lon="2.94144">
        <ele>145</ele>
        <time>2007-02-15T09:01:18Z</time>
      </trkpt>
      <trkpt lat="48.20973" lon="2.94152">
        <ele>143</ele>
        <time>2007-02-15T09:01:18Z</time>
      </trkpt>
      <trkpt lat="48.21083" lon="2.94171">
        <ele>142</ele>
        <time>2007-02-15T09:01:18Z</time>
      </trkpt>
      <trkpt lat="48.21094" lon="2.94214">
        <ele>143</ele>
        <time>2007-02-15T09:01:18Z</time>
      </trkpt>
      <trkpt lat="48.21126" lon="2.94265">
        <ele>144</ele>
        <time>2007-02-15T09:01:18Z</time>
      </trkpt>
      <trkpt lat="48.21161" lon="2.94306">
        <ele>144</ele>
        <time>2007-02-15T09:01:18Z</time>
      </trkpt>
      <trkpt lat="48.21201" lon="2.94387">
        <ele>145</ele>
        <time>2007-02-15T09:01:18Z</time>
      </trkpt>
      <trkpt lat="48.21228" lon="2.94542">
        <ele>146</ele>
        <time>2007-02-15T09:01:18Z</time>
      </trkpt>
      <trkpt lat="48.21252" lon="2.94667">
        <ele>145</ele>
        <time>2007-02-15T09:01:18Z</time>
      </trkpt>
      <trkpt lat="48.21292" lon="2.94772">
        <ele>146</ele>
        <time>2007-02-15T09:01:18Z</time>
      </trkpt>
      <trkpt lat="48.21461" lon="2.95093">
        <ele>148</ele>
        <time>2007-02-15T09:01:18Z</time>
      </trkpt>
      <trkpt lat="48.21547" lon="2.95323">
        <ele>150</ele>
        <time>2007-02-15T09:01:18Z</time>
      </trkpt>
      <trkpt lat="48.21609" lon="2.95566">
        <ele>150</ele>
        <time>2007-02-15T09:01:18Z</time>
      </trkpt>
      <trkpt lat="48.21737" lon="2.95534">
        <ele>149</ele>
        <time>2007-02-15T09:01:18Z</time>
      </trkpt>
      <trkpt lat="48.21704" lon="2.95789">
        <ele>149</ele>
        <time>2007-02-15T09:01:18Z</time>
      </trkpt>
      <trkpt lat="48.21868" lon="2.95882">
        <ele>147</ele>
        <time>2007-02-15T09:01:18Z</time>
      </trkpt>
      <trkpt lat="48.21964" lon="2.9592">
        <ele>144</ele>
        <time>2007-02-15T09:01:18Z</time>
      </trkpt>
      <trkpt lat="48.21991" lon="2.95937">
        <ele>144</ele>
        <time>2007-02-15T09:01:18Z</time>
      </trkpt>
      <trkpt lat="48.22005" lon="2.95964">
        <ele>145</ele>
        <time>2007-02-15T09:01:18Z</time>
      </trkpt>
      <trkpt lat="48.21995" lon="2.96035">
        <ele>146</ele>
        <time>2007-02-15T09:01:18Z</time>
      </trkpt>
      <trkpt lat="48.21988" lon="2.96108">
        <ele>148</ele>
        <time>2007-02-15T09:01:18Z</time>
      </trkpt>
      <trkpt lat="48.21995" lon="2.96179">
        <ele>148</ele>
        <time>2007-02-15T09:01:18Z</time>
      </trkpt>
      <trkpt lat="48.21999" lon="2.96226">
        <ele>147</ele>
        <time>2007-02-15T09:01:18Z</time>
      </trkpt>
      <trkpt lat="48.21983" lon="2.96297">
        <ele>146</ele>
        <time>2007-02-15T09:01:18Z</time>
      </trkpt>
      <trkpt lat="48.21921" lon="2.96421">
        <ele>143</ele>
        <time>2007-02-15T09:01:18Z</time>
      </trkpt>
      <trkpt lat="48.21921" lon="2.96454">
        <ele>143</ele>
        <time>2007-02-15T09:01:18Z</time>
      </trkpt>
      <trkpt lat="48.21943" lon="2.96495">
        <ele>142</ele>
        <time>2007-02-15T09:01:18Z</time>
      </trkpt>
      <trkpt lat="48.21968" lon="2.96502">
        <ele>141</ele>
        <time>2007-02-15T09:01:18Z</time>
      </trkpt>
      <trkpt lat="48.21986" lon="2.96522">
        <ele>140</ele>
        <time>2007-02-15T09:01:18Z</time>
      </trkpt>
      <trkpt lat="48.21992" lon="2.96566">
        <ele>139</ele>
        <time>2007-02-15T09:01:18Z</time>
      </trkpt>
      <trkpt lat="48.2199" lon="2.9664">
        <ele>138</ele>
        <time>2007-02-15T09:01:18Z</time>
      </trkpt>
      <trkpt lat="48.22021" lon="2.96718">
        <ele>134</ele>
        <time>2007-02-15T09:01:18Z</time>
      </trkpt>
      <trkpt lat="48.22061" lon="2.96839">
        <ele>126</ele>
        <time>2007-02-15T09:01:18Z</time>
      </trkpt>
      <trkpt lat="48.22075" lon="2.97085">
        <ele>115</ele>
        <time>2007-02-15T09:01:18Z</time>
      </trkpt>
      <trkpt lat="48.2209" lon="2.97304">
        <ele>128</ele>
        <time>2007-02-15T09:01:18Z</time>
      </trkpt>
      <trkpt lat="48.22128" lon="2.97355">
        <ele>136</ele>
        <time>2007-02-15T09:01:18Z</time>
      </trkpt>
      <trkpt lat="48.22213" lon="2.97416">
        <ele>146</ele>
        <time>2007-02-15T09:01:18Z</time>
      </trkpt>
      <trkpt lat="48.22273" lon="2.97441">
        <ele>150</ele>
        <time>2007-02-15T09:01:18Z</time>
      </trkpt>
      <trkpt lat="48.22313" lon="2.97482">
        <ele>152</ele>
        <time>2007-02-15T09:01:18Z</time>
      </trkpt>
      <trkpt lat="48.22336" lon="2.97536">
        <ele>152</ele>
        <time>2007-02-15T09:01:18Z</time>
      </trkpt>
      <trkpt lat="48.22338" lon="2.97573">
        <ele>153</ele>
        <time>2007-02-15T09:01:18Z</time>
      </trkpt>
      <trkpt lat="48.22308" lon="2.97623">
        <ele>153</ele>
        <time>2007-02-15T09:01:18Z</time>
      </trkpt>
      <trkpt lat="48.22172" lon="2.97846">
        <ele>152</ele>
        <time>2007-02-15T09:01:18Z</time>
      </trkpt>
      <trkpt lat="48.22072" lon="2.9804">
        <ele>152</ele>
        <time>2007-02-15T09:01:18Z</time>
      </trkpt>
      <trkpt lat="48.2202" lon="2.98174">
        <ele>148</ele>
        <time>2007-02-15T09:01:18Z</time>
      </trkpt>
      <trkpt lat="48.22002" lon="2.98214">
        <ele>146</ele>
        <time>2007-02-15T09:01:18Z</time>
      </trkpt>
      <trkpt lat="48.21974" lon="2.98238">
        <ele>146</ele>
        <time>2007-02-15T09:01:18Z</time>
      </trkpt>
      <trkpt lat="48.21848" lon="2.9825">
        <ele>150</ele>
        <time>2007-02-15T09:01:18Z</time>
      </trkpt>
      <trkpt lat="48.21779" lon="2.98262">
        <ele>150</ele>
        <time>2007-02-15T09:01:18Z</time>
      </trkpt>
      <trkpt lat="48.21716" lon="2.98255">
        <ele>150</ele>
        <time>2007-02-15T09:01:18Z</time>
      </trkpt>
      <trkpt lat="48.2166" lon="2.98274">
        <ele>149</ele>
        <time>2007-02-15T09:01:18Z</time>
      </trkpt>
      <trkpt lat="48.21605" lon="2.98347">
        <ele>146</ele>
        <time>2007-02-15T09:01:18Z</time>
      </trkpt>
      <trkpt lat="48.21582" lon="2.98421">
        <ele>142</ele>
        <time>2007-02-15T09:01:18Z</time>
      </trkpt>
      <trkpt lat="48.21571" lon="2.98458">
        <ele>141</ele>
        <time>2007-02-15T09:01:18Z</time>
      </trkpt>
      <trkpt lat="48.21495" lon="2.98407">
        <ele>138</ele>
        <time>2007-02-15T09:01:18Z</time>
      </trkpt>
      <trkpt lat="48.21464" lon="2.98322">
        <ele>136</ele>
        <time>2007-02-15T09:01:18Z</time>
      </trkpt>
      <trkpt lat="48.21426" lon="2.98184">
        <ele>133</ele>
        <time>2007-02-15T09:01:18Z</time>
      </trkpt>
      <trkpt lat="48.21418" lon="2.98042">
        <ele>128</ele>
        <time>2007-02-15T09:01:18Z</time>
      </trkpt>
      <trkpt lat="48.21218" lon="2.9764">
        <ele>127</ele>
        <time>2007-02-15T09:01:18Z</time>
      </trkpt>
      <trkpt lat="48.21158" lon="2.97518">
        <ele>132</ele>
        <time>2007-02-15T09:01:18Z</time>
      </trkpt>
      <trkpt lat="48.21089" lon="2.97342">
        <ele>139</ele>
        <time>2007-02-15T09:01:18Z</time>
      </trkpt>
      <trkpt lat="48.20913" lon="2.97068">
        <ele>144</ele>
        <time>2007-02-15T09:01:18Z</time>
      </trkpt>
      <trkpt lat="48.20868" lon="2.97151">
        <ele>143</ele>
        <time>2007-02-15T09:01:18Z</time>
      </trkpt>
      <trkpt lat="48.20471" lon="2.96857">
        <ele>145</ele>
        <time>2007-02-15T09:01:18Z</time>
      </trkpt>
      <trkpt lat="48.20398" lon="2.97179">
        <ele>148</ele>
        <time>2007-02-15T09:01:18Z</time>
      </trkpt>
      <trkpt lat="48.20324" lon="2.97145">
        <ele>149</ele>
        <time>2007-02-15T09:01:18Z</time>
      </trkpt>
      <trkpt lat="48.20191" lon="2.9713">
        <ele>151</ele>
        <time>2007-02-15T09:01:18Z</time>
      </trkpt>
      <trkpt lat="48.20117" lon="2.97135">
        <ele>151</ele>
        <time>2007-02-15T09:01:18Z</time>
      </trkpt>
      <trkpt lat="48.19843" lon="2.97388">
        <ele>151</ele>
        <time>2007-02-15T09:01:18Z</time>
      </trkpt>
      <trkpt lat="48.19794" lon="2.97387">
        <ele>151</ele>
        <time>2007-02-15T09:01:18Z</time>
      </trkpt>
      <trkpt lat="48.19709" lon="2.97369">
        <ele>151</ele>
        <time>2007-02-15T09:01:18Z</time>
      </trkpt>
      <trkpt lat="48.19598" lon="2.97408">
        <ele>151</ele>
        <time>2007-02-15T09:01:18Z</time>
      </trkpt>
      <trkpt lat="48.19535" lon="2.97424">
        <ele>151</ele>
        <time>2007-02-15T09:01:18Z</time>
      </trkpt>
      <trkpt lat="48.19492" lon="2.97461">
        <ele>151</ele>
        <time>2007-02-15T09:01:18Z</time>
      </trkpt>
      <trkpt lat="48.19433" lon="2.97591">
        <ele>151</ele>
        <time>2007-02-15T09:01:18Z</time>
      </trkpt>
      <trkpt lat="48.19409" lon="2.97554">
        <ele>150</ele>
        <time>2007-02-15T09:01:18Z</time>
      </trkpt>
      <trkpt lat="48.19332" lon="2.9755">
        <ele>149</ele>
        <time>2007-02-15T09:01:18Z</time>
      </trkpt>
      <trkpt lat="48.1932" lon="2.97415">
        <ele>148</ele>
        <time>2007-02-15T09:01:18Z</time>
      </trkpt>
      <trkpt lat="48.19202" lon="2.97134">
        <ele>147</ele>
        <time>2007-02-15T09:01:18Z</time>
      </trkpt>
      <trkpt lat="48.19163" lon="2.96942">
        <ele>146</ele>
        <time>2007-02-15T09:01:18Z</time>
      </trkpt>
      <trkpt lat="48.19096" lon="2.96794">
        <ele>146</ele>
        <time>2007-02-15T09:01:18Z</time>
      </trkpt>
      <trkpt lat="48.18762" lon="2.9567">
        <ele>141</ele>
        <time>2007-02-15T09:01:18Z</time>
      </trkpt>
      <trkpt lat="48.18618" lon="2.95282">
        <ele>139</ele>
        <time>2007-02-15T09:01:18Z</time>
      </trkpt>
      <trkpt lat="48.18582" lon="2.95265">
        <ele>139</ele>
        <time>2007-02-15T09:01:18Z</time>
      </trkpt>
      <trkpt lat="48.18569" lon="2.95207">
        <ele>138</ele>
        <time>2007-02-15T09:01:18Z</time>
      </trkpt>
      <trkpt lat="48.18572" lon="2.95056">
        <ele>138</ele>
        <time>2007-02-15T09:01:18Z</time>
      </trkpt>
      <trkpt lat="48.18569" lon="2.94918">
        <ele>137</ele>
        <time>2007-02-15T09:01:18Z</time>
      </trkpt>
      <trkpt lat="48.18502" lon="2.94833">
        <ele>131</ele>
        <time>2007-02-15T09:01:18Z</time>
      </trkpt>
      <trkpt lat="48.18513" lon="2.94736">
        <ele>130</ele>
        <time>2007-02-15T09:01:18Z</time>
      </trkpt>
      <trkpt lat="48.18498" lon="2.94645">
        <ele>134</ele>
        <time>2007-02-15T09:01:18Z</time>
      </trkpt>
      <trkpt lat="48.1849" lon="2.94517">
        <ele>137</ele>
        <time>2007-02-15T09:01:18Z</time>
      </trkpt>
      <trkpt lat="48.18488" lon="2.9444">
        <ele>139</ele>
        <time>2007-02-15T09:01:18Z</time>
      </trkpt>
      <trkpt lat="48.18455" lon="2.94349">
        <ele>139</ele>
        <time>2007-02-15T09:01:18Z</time>
      </trkpt>
      <trkpt lat="48.18417" lon="2.94288">
        <ele>138</ele>
        <time>2007-02-15T09:01:18Z</time>
      </trkpt>
      <trkpt lat="48.18406" lon="2.94143">
        <ele>138</ele>
        <time>2007-02-15T09:01:18Z</time>
      </trkpt>
      <trkpt lat="48.18714" lon="2.94221">
        <ele>138</ele>
        <time>2007-02-15T09:01:18Z</time>
      </trkpt>
      <trkpt lat="48.18724" lon="2.94382">
        <ele>138</ele>
        <time>2007-02-15T09:01:18Z</time>
      </trkpt>
      <trkpt lat="48.18737" lon="2.94517">
        <ele>137</ele>
        <time>2007-02-15T09:01:18Z</time>
      </trkpt>
      <trkpt lat="48.18822" lon="2.94669">
        <ele>132</ele>
        <time>2007-02-15T09:01:18Z</time>
      </trkpt>
      <trkpt lat="48.18934" lon="2.94707">
        <ele>131</ele>
        <time>2007-02-15T09:01:18Z</time>
      </trkpt>
      <trkpt lat="48.1897" lon="2.94593">
        <ele>131</ele>
        <time>2007-02-15T09:01:18Z</time>
      </trkpt>
      <trkpt lat="48.18991" lon="2.94516">
        <ele>131</ele>
        <time>2007-02-15T09:01:18Z</time>
      </trkpt>
      <trkpt lat="48.18994" lon="2.94446">
        <ele>130</ele>
        <time>2007-02-15T09:01:18Z</time>
      </trkpt>
      <trkpt lat="48.18983" lon="2.94378">
        <ele>127</ele>
        <time>2007-02-15T09:01:18Z</time>
      </trkpt>
      <trkpt lat="48.19391" lon="2.94501">
        <ele>144</ele>
        <time>2007-02-15T09:01:18Z</time>
      </trkpt>
      <trkpt lat="48.19569" lon="2.94523">
        <ele>143</ele>
        <time>2007-02-15T09:01:18Z</time>
      </trkpt>
      <trkpt lat="48.19656" lon="2.94514">
        <ele>142</ele>
        <time>2007-02-15T09:01:18Z</time>
      </trkpt>
      <trkpt lat="48.19726" lon="2.94478">
        <ele>142</ele>
        <time>2007-02-15T09:01:18Z</time>
      </trkpt>
      <trkpt lat="48.19767" lon="2.94445">
        <ele>143</ele>
        <time>2007-02-15T09:01:18Z</time>
      </trkpt>
      <trkpt lat="48.19841" lon="2.94435">
        <ele>144</ele>
        <time>2007-02-15T09:01:18Z</time>
      </trkpt>
      <trkpt lat="48.19895" lon="2.94426">
        <ele>144</ele>
        <time>2007-02-15T09:01:18Z</time>
      </trkpt>
      <trkpt lat="48.19972" lon="2.94413">
        <ele>144</ele>
        <time>2007-02-15T09:01:18Z</time>
      </trkpt>
      <trkpt lat="48.20037" lon="2.94451">
        <ele>144</ele>
        <time>2007-02-15T09:01:18Z</time>
      </trkpt>
      <trkpt lat="48.20097" lon="2.94492">
        <ele>144</ele>
        <time>2007-02-15T09:01:18Z</time>
      </trkpt>
      <trkpt lat="48.20235" lon="2.94383">
        <ele>139</ele>
        <time>2007-02-15T09:01:18Z</time>
      </trkpt>
      <trkpt lat="48.20431" lon="2.94291">
        <ele>142</ele>
        <time>2007-02-15T09:01:18Z</time>
      </trkpt>
      <trkpt lat="48.20559" lon="2.94242">
        <ele>142</ele>
        <time>2007-02-15T09:01:18Z</time>
      </trkpt>
      <trkpt lat="48.20589" lon="2.94125">
        <ele>143</ele>
        <time>2007-02-15T09:01:18Z</time>
      </trkpt>
      <trkpt lat="48.20735" lon="2.94072">
        <ele>145</ele>
        <time>2007-02-15T09:01:18Z</time>
      </trkpt>
    </trkseg>
  </trk>
</gpx>